Weather History for KRGK - November, 2012

Change the Weather History Date:

Saturday, November 10, 2012

  Actual Average Record
Temperature  
Mean Temperature 58 °F -  
Max Temperature 71 °F 43 °F 71 °F (2012)
Min Temperature 44 °F 28 °F 19 °F (1996)
Degree Days  
Heating Degree Days 8    
Growing Degree Days 8 (Base 50)    
Moisture  
Dew Point 49 °F    
Average Humidity 78    
Maximum Humidity 93    
Minimum Humidity 57    
Precipitation  
Precipitation 0.00 in - - ()
Sea Level Pressure  
Sea Level Pressure 29.68 in    
Wind  
Wind Speed 12 mph (SE)    
Max Wind Speed 18 mph    
Max Gust Speed 26 mph    
Visibility 6 miles    
Events Rain , Thunderstorm    
Averages and records for this station are not official NWS values.
T = Trace of Precipitation, MM = Missing Value Source: NWS Daily Summary

Daily Weather History Graph

Daily Weather History Graph

Search for Another Location

Airport or City:

Trip Planner

Search our weather history database for the weather conditions in past years. The results will help you decide how hot, cold, wet, or windy it might be!

Date:

Astronomy

Nov. 10, 2012 Rise Set
Actual Time 7:00 AM CST 4:46 PM CST
Civil Twilight 6:29 AM CST 5:17 PM CST
Nautical Twilight 5:54 AM CST 5:52 PM CST
Astronomical Twilight 5:20 AM CST 6:27 PM CST
Moon 2:57 AM CST (11/10) 2:40 PM CST (11/10)
Length of Visible Light 10h 48m
Length of Day
9h 46m
Waning Crescent, 14% of the Moon is Illuminated
Nov 10
Waning Crescent
Nov 13
New
Nov 20
First Quarter
Nov 28
Full
Dec 6
Last Quarter

Hourly Weather History & Observations

Time (CST) Temp. Windchill Dew Point Humidity Pressure Visibility Wind Dir Wind Speed Gust Speed Precip Events Conditions
12:15 AM 46.4 °F 42.4 °F 42.8 °F 87% 29.94 in 2.5 mi ESE 8.1 mph - N/A   Drizzle
12:35 AM 44.6 °F 39.2 °F 42.8 °F 93% 29.92 in 1.8 mi ESE 10.4 mph - N/A   Light Drizzle
12:55 AM 44.6 °F 39.7 °F 42.8 °F 93% 29.92 in 2.0 mi ESE 9.2 mph - N/A   Overcast
1:15 AM 46.4 °F 40.7 °F 42.8 °F 87% 29.90 in 2.5 mi ESE 12.7 mph - N/A   Mostly Cloudy
1:35 AM 46.4 °F 41.5 °F 42.8 °F 87% 29.89 in 3.0 mi ESE 10.4 mph 18.4 mph N/A   Overcast
1:55 AM 46.4 °F 41.5 °F 42.8 °F 87% 29.89 in 3.0 mi ESE 10.4 mph 19.6 mph N/A   Overcast
2:15 AM 46.4 °F 40.7 °F 42.8 °F 87% 29.89 in 3.0 mi ESE 12.7 mph - N/A   Overcast
2:35 AM 46.4 °F 40.4 °F 42.8 °F 87% 29.88 in 3.0 mi ESE 13.8 mph 21.9 mph N/A   Overcast
2:55 AM 46.4 °F 40.7 °F 42.8 °F 87% 29.87 in 3.0 mi ESE 12.7 mph 18.4 mph N/A   Overcast
3:15 AM 46.4 °F 40.7 °F 42.8 °F 87% 29.85 in 3.0 mi East 12.7 mph 20.7 mph N/A   Overcast
3:35 AM 46.4 °F 41.1 °F 42.8 °F 87% 29.84 in 3.0 mi East 11.5 mph 18.4 mph N/A   Overcast
3:54 AM 46.4 °F 41.5 °F 42.8 °F 87% 29.83 in 3.0 mi ESE 10.4 mph - N/A Thunderstorm Overcast
4:15 AM 46.4 °F 41.1 °F 42.8 °F 87% 29.83 in 3.0 mi East 11.5 mph 17.3 mph N/A   Overcast
4:35 AM 46.4 °F 41.9 °F 42.8 °F 87% 29.84 in 3.0 mi ESE 9.2 mph - N/A   Overcast
4:55 AM 46.4 °F 41.5 °F 42.8 °F 87% 29.82 in 3.0 mi ESE 10.4 mph 19.6 mph N/A   Overcast
5:15 AM 46.4 °F 41.1 °F 42.8 °F 87% 29.81 in 3.0 mi ESE 11.5 mph 23.0 mph N/A Rain Light Rain
5:35 AM 46.4 °F 41.1 °F 42.8 °F 87% 29.81 in 3.0 mi ESE 11.5 mph 18.4 mph N/A   Mostly Cloudy
5:55 AM 46.4 °F 40.7 °F 42.8 °F 87% 29.79 in 3.0 mi East 12.7 mph - N/A   Light Drizzle
6:35 AM 46.4 °F 40.4 °F 44.6 °F 93% 29.78 in 2.5 mi ESE 13.8 mph 21.9 mph N/A   Overcast
6:55 AM 46.4 °F 40.4 °F 44.6 °F 93% 29.77 in 3.0 mi ESE 13.8 mph 23.0 mph N/A   Mostly Cloudy
7:15 AM 46.4 °F 40.4 °F 44.6 °F 93% 29.77 in 3.0 mi ESE 13.8 mph 17.3 mph N/A   Mostly Cloudy
7:34 AM 46.4 °F 40.4 °F 44.6 °F 93% 29.77 in 3.0 mi ESE 13.8 mph - N/A   Scattered Clouds
7:55 AM 46.4 °F 40.4 °F 44.6 °F 93% 29.76 in 3.0 mi ESE 13.8 mph 20.7 mph N/A   Scattered Clouds
8:15 AM 48.2 °F - 44.6 °F 87% 29.76 in 3.0 mi ESE 15.0 mph - N/A   Scattered Clouds
8:35 AM 48.2 °F - 44.6 °F 87% 29.75 in 2.0 mi ESE 16.1 mph 21.9 mph N/A   Mostly Cloudy
8:55 AM 48.2 °F - 44.6 °F 87% 29.75 in 2.0 mi ESE 12.7 mph - N/A   Mist
9:15 AM 48.2 °F - 44.6 °F 87% 29.73 in 2.0 mi ESE 16.1 mph - N/A   Mostly Cloudy
9:35 AM 48.2 °F - 44.6 °F 87% 29.72 in 2.0 mi ESE 16.1 mph 20.7 mph N/A   Mostly Cloudy
9:55 AM 50.0 °F - 44.6 °F 82% 29.71 in 2.0 mi SE 12.7 mph - N/A   Haze
10:15 AM 50.0 °F - 46.4 °F 87% 29.70 in 2.0 mi SE 13.8 mph - N/A   Mist
10:35 AM 50.0 °F - 46.4 °F 87% 29.69 in 2.0 mi SE 15.0 mph 21.9 mph N/A   Mist
10:55 AM 51.8 °F - 46.4 °F 82% 29.68 in 2.5 mi SE 15.0 mph - N/A   Haze
11:15 AM 51.8 °F - 46.4 °F 82% 29.66 in 2.5 mi SE 13.8 mph 18.4 mph N/A   Haze
11:35 AM 53.6 °F - 48.2 °F 82% 29.65 in 3.0 mi ESE 16.1 mph - N/A   Haze
11:55 AM 53.6 °F - 48.2 °F 82% 29.63 in 3.0 mi ESE 15.0 mph - N/A   Haze
12:15 PM 55.4 °F - 48.2 °F 77% 29.62 in 4.0 mi SE 15.0 mph 19.6 mph N/A   Haze
12:35 PM 57.2 °F - 50.0 °F 77% 29.62 in 5.0 mi SE 12.7 mph - N/A   Haze
12:55 PM 57.2 °F - 50.0 °F 77% 29.61 in 5.0 mi SE 12.7 mph - N/A   Haze
1:15 PM 59.0 °F - 51.8 °F 77% 29.60 in 5.0 mi SE 11.5 mph - N/A   Haze
1:35 PM 60.8 °F - 51.8 °F 72% 29.59 in 7.0 mi SE 10.4 mph - N/A   Scattered Clouds
1:55 PM 62.6 °F - 53.6 °F 72% 29.58 in 7.0 mi SE 11.5 mph - N/A   Scattered Clouds
2:15 PM 64.4 °F - 53.6 °F 68% 29.58 in 10.0 mi ESE 11.5 mph - N/A   Scattered Clouds
2:35 PM 66.2 °F - 55.4 °F 68% 29.57 in 10.0 mi SE 8.1 mph - N/A   Scattered Clouds
2:55 PM 68.0 °F - 55.4 °F 64% 29.57 in 10.0 mi SE 9.2 mph - N/A   Scattered Clouds
3:15 PM 69.8 °F - 55.4 °F 60% 29.57 in 10.0 mi SE 6.9 mph - N/A   Clear
3:35 PM 69.8 °F - 55.4 °F 60% 29.56 in 10.0 mi SE 9.2 mph - N/A   Clear
3:55 PM 71.6 °F - 55.4 °F 57% 29.56 in 10.0 mi SSE 9.2 mph 17.3 mph N/A   Clear
4:15 PM 69.8 °F - 55.4 °F 60% 29.56 in 10.0 mi SSE 12.7 mph 17.3 mph N/A   Clear
4:35 PM 66.2 °F - 55.4 °F 68% 29.55 in 10.0 mi SE 9.2 mph - N/A   Clear
4:55 PM 66.2 °F - 55.4 °F 68% 29.55 in 10.0 mi SE 11.5 mph - N/A   Clear
5:15 PM 64.4 °F - 55.4 °F 73% 29.55 in 10.0 mi SE 11.5 mph - N/A   Clear
5:35 PM 64.4 °F - 55.4 °F 73% 29.55 in 10.0 mi SE 11.5 mph 17.3 mph N/A   Clear
5:55 PM 62.6 °F - 53.6 °F 72% 29.56 in 10.0 mi SE 9.2 mph - N/A   Clear
6:15 PM 62.6 °F - 53.6 °F 72% 29.56 in 10.0 mi SE 6.9 mph - N/A   Clear
6:35 PM 64.4 °F - 55.4 °F 73% 29.57 in 10.0 mi SSE 9.2 mph - N/A   Clear
6:55 PM 66.2 °F - 55.4 °F 68% 29.56 in 10.0 mi SSE 11.5 mph 17.3 mph N/A   Scattered Clouds
7:15 PM 66.2 °F - 55.4 °F 68% 29.57 in 10.0 mi South 11.5 mph 20.7 mph N/A   Scattered Clouds
7:35 PM 68.0 °F - 55.4 °F 64% 29.56 in 10.0 mi South 15.0 mph 21.9 mph N/A   Mostly Cloudy
7:55 PM 68.0 °F - 55.4 °F 64% 29.54 in 10.0 mi SSE 12.7 mph - N/A   Overcast
8:15 PM 68.0 °F - 55.4 °F 64% 29.53 in 10.0 mi SSE 13.8 mph 23.0 mph N/A   Overcast
8:35 PM 68.0 °F - 55.4 °F 64% 29.53 in 10.0 mi SSE 18.4 mph 24.2 mph N/A   Mostly Cloudy
8:55 PM 66.2 °F - 55.4 °F 68% 29.53 in 10.0 mi South 11.5 mph 19.6 mph N/A   Mostly Cloudy
9:35 PM 66.2 °F - 55.4 °F 68% 29.53 in 10.0 mi South 10.4 mph 23.0 mph N/A   Scattered Clouds
9:55 PM 68.0 °F - 55.4 °F 64% 29.54 in 10.0 mi South 17.3 mph 26.5 mph N/A   Mostly Cloudy
10:15 PM 66.2 °F - 55.4 °F 68% 29.54 in 10.0 mi South 10.4 mph 17.3 mph N/A   Scattered Clouds
10:35 PM 66.2 °F - 55.4 °F 68% 29.54 in 10.0 mi South 11.5 mph 20.7 mph N/A   Scattered Clouds
10:55 PM 66.2 °F - 53.6 °F 64% 29.54 in 10.0 mi South 17.3 mph 23.0 mph N/A   Scattered Clouds
11:15 PM 66.2 °F - 53.6 °F 64% 29.54 in 10.0 mi South 13.8 mph 23.0 mph N/A   Scattered Clouds
11:35 PM 66.2 °F - 53.6 °F 64% 29.54 in 10.0 mi South 13.8 mph 24.2 mph N/A   Mostly Cloudy
11:55 PM 66.2 °F - 53.6 °F 64% 29.56 in 10.0 mi South 11.5 mph 23.0 mph N/A   Overcast